Regional Weather Roundup
Issued by NWS

Home | Current Version | Previous Version | Text Only | Print | Product List | Glossary Off
Versions: 1 2 3 4 5 6 7 8 9 10 11 12 13 14 15 16 17 18 19 20 21 22 23 24 25 26 27 28 29 30 31 32 33 34 35 36 37 38 39 40 41 42 43 44 45 46 47 48 49 50

000
ASUS43 KMKX 271200
RWRWI

WISCONSIN REGIONAL WEATHER ROUNDUP
NATIONAL WEATHER SERVICE MILWAUKEE/SULLIVAN WI
700 AM CDT MON MAR 27 2017

NOTE: "FAIR" INDICATES FEW OR NO CLOUDS BELOW 12,000 FEET WITH NO
SIGNIFICANT WEATHER AND/OR OBSTRUCTIONS TO VISIBILITY.

WIZ001-002-006>008-014>016-023>028-271300-
NORTHWEST WISCONSIN

CITY           SKY/WX    TMP DP  RH WIND       PRES   REMARKS
SUPERIOR ARPT  CLOUDY    32  32 100 SW5       29.97R WCI  27
ASHLAND        CLOUDY    33  32  96 CALM      29.96S
6HR MIN TEMP:  32; 6HR MAX TEMP:  33;

HAYWARD        CLOUDY    35  32  88 CALM      29.94F
6HR MIN TEMP:  35; 6HR MAX TEMP:  35; 6HR PCP: TRACE;

SIREN          CLOUDY    33  33  98 CALM      29.96S
CUMBERLAND     CLOUDY    32  32 100 N3        29.94S
RICE LAKE      DRIZZLE   35  34  97 CALM      29.95F
CHETEK         CLOUDY    34  34  99 CALM      29.93F FOG
LADYSMITH      LGT RAIN  34  33  96 N6        29.94F WCI  29
EAU CLAIRE     NOT AVBL
MENOMONIE      CLOUDY    37  36  95 N5        29.94S WCI  33
NEW RICHMOND   RAIN      35  35 100 N3        29.95F
OSCEOLA        CLOUDY    35  35 100 NW5       29.99S WCI  31
$$

WIZ003>005-009-010-017-018-271300-
NORTH CENTRAL WISCONSIN

CITY           SKY/WX    TMP DP  RH WIND       PRES   REMARKS
MANITOWISH WTR CLOUDY    31  31 100 CALM      29.92R FOG
ARBOR VITAE    CLOUDY    33  33  96 N3        29.91R
WOODRUFF       CLOUDY    33  33  96 N3        29.91R
RHINELANDER    CLOUDY    34  33  96 N5        29.90F WCI  30
6HR MIN TEMP:  34; 6HR MAX TEMP:  36; 6HR PCP: TRACE;

EAGLE RIVER    CLOUDY    32  32 100 N3        29.91S
LAND O LAKES   CLOUDY    32  32 100 N3        29.92S
PHILLIPS       CLOUDY    32  32 100 CALM      29.92R
TOMAHAWK       DRIZZLE   32  31  98 CALM      29.91F
MEDFORD        CLOUDY    33  32  96 N5        29.89F WCI  28
MERRILL        CLOUDY    34  34 100 N3        29.91F
$$

WIZ029-030-035-036-043>047-271300-
CENTRAL WISCONSIN

CITY           SKY/WX    TMP DP  RH WIND       PRES   REMARKS
WAUSAU         CLOUDY    35  34  96 N5        29.89S WCI  31
6HR MIN TEMP:  35; 6HR MAX TEMP:  38;

MOSINEE        CLOUDY    36  36 100 N9        29.91S WCI  29
MARSHFIELD     CLOUDY    36  34  92 NW6       29.90R WCI  31
6HR MIN TEMP:  36; 6HR MAX TEMP:  38;

STEVENS POINT  LGT RAIN  37  37 100 CALM      29.90F
WAUPACA        CLOUDY    40  39  97 CALM      29.92R FOG
WAUTOMA        CLOUDY    39  39 100 W3        29.91F FOG
6HR MIN TEMP:  39; 6HR MAX TEMP:  39;

WISC RAPIDS    CLOUDY    39  39 100 NW3       29.93R
6HR MIN TEMP:  39; 6HR MAX TEMP:  39;

CAMP DOUGLAS   CLOUDY    39  39 100 W5        29.92R
$$

WIZ011>013-019>022-031-037>040-048>050-271300-
NORTHEAST WISCONSIN

CITY           SKY/WX    TMP DP  RH WIND       PRES   REMARKS
ANTIGO         CLOUDY    33  33 100 N7        29.89F WCI  27
SHAWANO        CLOUDY    39  37  94 N3        29.92S
OCONTO         CLOUDY    36  35  96 N3        29.92S
STURGEON BAY   CLOUDY    35  35 100 N6        29.92R FOG     WCI  30
6HR MIN TEMP:  34; 6HR MAX TEMP:  36; 6HR PCP: TRACE;

GREEN BAY      CLOUDY    38  38 100 NW5       29.92R WCI  34
6HR MIN TEMP:  37; 6HR MAX TEMP:  38;

MANITOWOC      NOT AVBL
APPLETON       FOG       37  37 100 VRB3      29.89R VSB 1/2
CLINTONVILLE   CLOUDY    37  36  93 CALM      29.92R
OSHKOSH        CLOUDY    39  38  96 CALM      29.90S FOG
6HR MIN TEMP:  38; 6HR MAX TEMP:  39;

$$

WIZ032>034-041-042-053>061-271300-
SOUTHWEST WISCONSIN

CITY           SKY/WX    TMP DP  RH WIND       PRES   REMARKS
LA CROSSE      CLOUDY    41  41 100 CALM      29.94R FOG
6HR MIN TEMP:  41; 6HR MAX TEMP:  42;

SPARTA         CLOUDY    38  38 100 CALM      29.94R
VIROQUA        CLOUDY    39  39 100 NW3       29.93R VSB 1/4
BOSCOBEL       CLOUDY    43  41  93 CALM      29.95R FOG
6HR MIN TEMP:  42; 6HR MAX TEMP:  43; 6HR PCP: TRACE;

PRAIRIE DU CHI CLOUDY    41  40  95 CALM      29.94R FOG
PLATTEVILLE    CLOUDY    41  41 100 NW3       29.93R
$$

WIZ056-057-062-063-064-067-068-271300-
SOUTH CENTRAL WISCONSIN

CITY           SKY/WX    TMP DP  RH WIND       PRES   REMARKS
REEDSBURG      CLOUDY    40  40 100 W3        29.92R
BARABOO/DELLS  CLOUDY    39  38  97 CALM      29.91R FOG
LONE ROCK      NOT AVBL
MINERAL POINT  CLOUDY    43  43 100 CALM      29.93R FOG
MADISON        CLOUDY    41  38  89 CALM      29.92R
6HR MIN TEMP:  40; 6HR MAX TEMP:  41;

MIDDLETON      CLOUDY    42  42 100 CALM      29.91R
WATERTOWN      CLOUDY    39  39 100 CALM      29.90S FOG
MONROE         FOG       41  41 100 CALM      29.91R VSB 1/2
JANESVILLE     CLOUDY    43  43 100 CALM      29.92R
$$

WIZ051-052-058>065-066-070>072-271300-
SOUTHEAST WISCONSIN

CITY           SKY/WX    TMP DP  RH WIND       PRES   REMARKS
MILWAUKEE      CLOUDY    43  39  86 NW6       29.92R
6HR MIN TEMP:  43; 6HR MAX TEMP:  44; 6HR PCP: TRACE;

WAUKESHA       CLOUDY    37  37 100 N3        29.92R
MILWAUKEE/TIMM CLOUDY    39  36  87 NW5       29.92R FOG
RACINE         CLOUDY    42  39  89 CALM      29.94R
6HR MIN TEMP:  41; 6HR MAX TEMP:  44;

KENOSHA        CLOUDY    43  40  89 W5        29.93R
6HR MIN TEMP:  43; 6HR MAX TEMP:  47;

FOND DU LAC    CLOUDY    40  37  89 CALM      29.90F
6HR MIN TEMP:  39; 6HR MAX TEMP:  40; 6HR PCP: TRACE;

SHEBOYGAN      CLOUDY    38  36  92 W5        29.91S WCI  34
6HR MIN TEMP:  38; 6HR MAX TEMP:  39; 6HR PCP: TRACE;

WEST BEND      CLOUDY    37  37 100 W3        29.91S FOG
JUNEAU         CLOUDY    38  38 100 CALM      29.91F FOG
$$

LSZ147-162-271300-
LAKE SUPERIOR

STATION/POSITION TIME  TEMP    WIND        PRES    WAVE
                       AIR SEA DIR/SP/G            HT/PER
                 (UTC) (F)     (DEG/KT/KT) (MB)    (FT/S)
DEVILS ISLAND    1100   33     240/  8/  9 1015.0S
PORT WING        1140   33     200/  3/  4 1014.9S
SAXON HARBOR     1130   33      CALM  /  2 1014.6S
$$

LMZ867-665-643>646-271300-
LAKE MICHIGAN

STATION/POSITION TIME  TEMP    WIND        PRES    WAVE
                       AIR SEA DIR/SP/G            HT/PER
                 (UTC) (F)     (DEG/KT/KT) (MB)    (FT/S)
CHAMBERS ISLAND  1140   34     270/  4/  7 1013.2R
NORTHPORT PIER   1140   34     300/  9/ 12 1012.9R
SISTER BAY       0951   34        CALM       N/A
KEWAUNEE LAKESHO 1130   37     340/  3/  7 1012.3F
SHEBOYGAN LAKESH 1100   38     310/  5/  6 1013.0R
PORT WASHINGTON  1140   41     290/  4/  6 1013.9S
MILWAUKEE LAKESH 1130   42     290/  5/  6   N/A
KENOSHA   LAKESH 1100   43     330/  2/  5 1012.9
$$

TC  - TEMPERATURE IN CELSIUS
VSB - VISIBILITY IN STATUTE MILES
WCI - WIND CHILL INDEX
HX  - HEAT INDEX





USA.gov is the U.S. government's official web portal to all federal, state and local government web resources and services.